NOAA 16 DEB, 41210

Orbit data source: Space-Track

NOAA 16 DEB, 41210 is space debris in SSO originally from a launch on Thu, 21 Sep 2000 UTC launched from the Air Force Western Test Range (AFWTR). Debris objects in space refer to the collection of defunct objects orbiting the Earth. Examples of debris include non-operational satellites, rocket bodies, and fragments generated from explosions, collisions, or faulty payload assembly.

Loading next visibility...
Identifier
41210, 2000-055DP
Orbit
SSO
Country
Flag of USUS
Related business
Manufacturer
Unknown
Mission
Spacecraft
Bus & Motor
Unknown
Mass
Unknown
Launch date (UTC)
2000-09-21 (25 years ago)
Launch vehicle
Unknown
Launch site
Air Force Western Test Range (AFWTR)
Object type
Payload
Rocket body
Debris
Shape & HBR
Unknown shape, 0.1 m
Radar Cross Section
Small (<0.1 m²)

Expand to show TLE details & history
Last TLE update: 5 days ago

TLE from 5 days ago
0 NOAA 16 DEB
1 41210U 00055DP  25302.93722381  .00003901  00000-0  18357-2 0  9994
2 41210  98.6944 354.8793 0023276  74.9345 285.4405 14.20375206510072
Epoch: 2025-10-29T22:29Z
TLE epoch observation values (Epoch: 2025-10-29T22:29:36.137Z)
Latitude
-0.00002°
Longitude
-21.02447°
Altitude
822.572 km
Speed
7.444 km/s
True Right ascension
23h 39m 31s
True Declination
0° 00' 00"
Sunlit
Object was in full shadow at epoch
Visualization orbit readout
Latitude
Unknown
Longitude
Unknown
Altitude
Unknown
Speed
Unknown
Apparent Right ascension
Unknown
Apparent Declination
Unknown
Sunlit
N/A
Visualization observer readout
Local Sidereal Time
07:50:04
Azimuth
Unknown
Elevation
Unknown
Doppler factor
Unknown
Orbital elements
Apogee altitude
837.999 km
Perigee altitude
804.484 km
Semi-major axis
7,199.378 km
Eccentricity
0.00233
Inclination
98.6944°
RAAN
354.8793°
Arg. of periapsis
74.9345°
True anomaly
285.1832°
Mean anomaly
285.4405°
Eccentric anomaly
285.31187°
Mean motion
3.55304 °/min
Orbital period
101.32 mins
BSTAR
0.0018357
Loading maneuver chart data...
Computing Atmospheric mass density...
Loading historical data...
Loading historical data...
Loading historical data...
Loading historical data...
Loading historical data...
Loading historical data...
Loading historical data...

Documentation

Showing up to 5 results
|